Location: Haliburton Scout Reserve
(45.0900°N, 78.3200°W)
Time: 18:59:46
(UTC-04:00)

STRAND 1 - Pass Details

Date: 03 April 2023
Orbit: 767 x 779 km, 98.4° (Epoch: 06 June)

Event Time Altitude Azimuth Distance (km) Brightness Sun altitude
Rises 21:45:46 0° 357° (N) 3,250 ? -21.0°
Reaches altitude 10° 21:49:05 10° 335° (NNW) 2,317 ? -21.4°
Maximum altitude 21:51:47 15° 302° (WNW) 2,004 ? -21.8°
Drops below altitude 10° 21:54:30 10° 270° (W) 2,309 ? -22.2°
Sets 21:57:48 0° 247° (WSW) 3,231 ? -22.7°
